DW4070 Weather Reports


Display with metric or nautical units.
time (UTC)temp
F
wind
direction
speed
MPH
gust
MPH
rain 1hr
in
rain 24hr
in
rain mn
in
humidity
%
barometer
mb
20260507043014 56 50 0.0 0.0 0.00 0.08 0.00 92 1009.8
20260507041512 56 43 0.0 1.0 0.00 0.08 0.00 92 1009.8
20260507040009 57 127 0.0 0.0 0.00 0.08 0.08 93 1009.6
20260507034519 57 149 0.0 0.0 0.00 0.08 0.08 94 1009.2
20260507033015 57 149 0.0 0.0 0.00 0.08 0.08 94 1009.2
20260507031507 58 149 0.0 0.0 0.00 0.08 0.08 94 1009.3
20260507030007 58 149 0.0 0.0 0.00 0.08 0.08 94 1009.7
20260507024509 58 149 0.0 0.0 0.01 0.08 0.08 95 1009.6
20260507023013 58 149 0.0 0.0 0.02 0.08 0.08 95 1009.6
20260507021505 58 149 0.0 0.0 0.02 0.08 0.08 95 1009.7
20260507020006 58 262 0.0 0.0 0.02 0.08 0.08 95 1009.7
20260507014508 58 254 0.0 0.0 0.01 0.07 0.07 94 1009.2
20260507013003 58 254 0.0 0.0 0.00 0.06 0.06 94 1009.2
20260507011505 58 254 0.0 0.0 0.00 0.06 0.06 94 1009.2
20260507010003 58 254 0.0 0.0 0.00 0.06 0.06 94 1009.1
20260507004502 58 254 0.0 0.0 0.00 0.06 0.06 94 1009.0
20260507003002 59 254 0.0 0.0 0.00 0.06 0.06 94 1008.9
20260507001500 59 254 0.0 0.0 0.00 0.06 0.06 94 1008.8
20260506234559 59 231 0.0 0.0 0.00 0.06 0.06 94 1008.6
20260506233100 59 221 0.0 0.0 0.00 0.06 0.06 94 1008.8
20260506231602 59 221 0.0 0.0 0.00 0.06 0.06 94 1008.9
20260506230059 59 221 0.0 0.0 0.00 0.06 0.06 94 1008.6
20260506224556 59 221 0.0 1.0 0.00 0.06 0.06 94 1008.6
20260506223058 59 215 0.0 2.0 0.00 0.06 0.06 93 1008.4
20260506221557 59 219 0.0 3.0 0.00 0.06 0.06 93 1008.4
20260506220056 59 184 0.0 3.0 0.00 0.06 0.06 93 1008.2
20260506214603 59 267 0.0 3.0 0.00 0.06 0.06 93 1008.1
20260506213055 59 267 0.0 3.0 0.00 0.06 0.06 93 1008.1
20260506211600 59 246 0.0 2.0 0.00 0.06 0.06 93 1008.1
20260506210055 59 204 0.0 3.0 0.00 0.06 0.06 93 1007.7
20260506204553 59 263 0.0 2.0 0.01 0.06 0.06 92 1007.9
20260506203050 59 206 0.0 4.0 0.01 0.06 0.06 92 1008.0
20260506201549 59 189 0.0 1.0 0.01 0.06 0.06 91 1008.1
20260506200050 59 59 0.0 4.0 0.01 0.06 0.06 91 1008.3
20260506194546 59 263 0.0 4.0 0.00 0.05 0.05 90 1008.5
20260506193044 59 213 0.0 3.0 0.00 0.05 0.05 90 1008.8
20260506191551 59 197 1.0 5.0 0.00 0.05 0.05 89 1008.7
20260506190043 60 262 0.0 3.0 0.01 0.05 0.05 90 1008.7
20260506184541 60 240 0.0 4.0 0.02 0.05 0.05 89 1008.9
20260506183040 60 189 0.0 6.0 0.02 0.05 0.05 89 1009.1
20260506181544 60 281 2.0 4.0 0.03 0.05 0.05 89 1009.4
20260506180046 60 281 0.0 2.0 0.03 0.04 0.04 89 1009.6
20260506174537 60 281 0.0 2.0 0.03 0.03 0.03 89 1009.4
20260506173041 60 221 0.0 3.0 0.03 0.03 0.03 88 1009.4
20260506171535 61 243 0.0 3.0 0.02 0.02 0.02 86 1009.6
20260506170032 61 263 0.0 2.0 0.01 0.01 0.01 85 1009.8
20260506164530 62 259 0.0 4.0 0.00 0.00 0.00 81 1010.2
20260506163028 63 263 0.0 5.0 0.00 0.00 0.00 77 1010.7
20260506161533 64 265 1.0 5.0 0.00 0.00 0.00 75 1010.5
20260506160028 65 235 0.0 5.0 0.00 0.00 0.00 75 1010.6
20260506154526 65 183 1.0 9.0 0.00 0.00 0.00 72 1010.6
20260506153024 66 275 0.0 8.0 0.00 0.00 0.00 73 1010.8
20260506151524 66 275 0.0 8.0 0.00 0.00 0.00 71 1010.7
20260506150023 66 261 1.0 5.0 0.00 0.00 0.00 73 1010.8
20260506144522 66 263 1.0 4.0 0.00 0.00 0.00 72 1010.6
20260506143026 66 203 1.0 6.0 0.00 0.00 0.00 73 1010.7
20260506141523 66 268 1.0 7.0 0.00 0.00 0.00 73 1010.9
20260506140020 65 281 1.0 7.0 0.00 0.00 0.00 74 1011.0
20260506134515 64 272 2.0 11.0 0.00 0.00 0.00 76 1011.0
20260506133011 63 281 1.0 6.0 0.00 0.00 0.00 78 1011.1
20260506131508 62 268 0.0 3.0 0.00 0.00 0.00 81 1010.8
20260506130006 61 150 0.0 6.0 0.00 0.00 0.00 81 1010.8
20260506124505 61 264 1.0 5.0 0.00 0.00 0.00 81 1010.8
20260506123002 61 210 0.0 2.0 0.00 0.00 0.00 82 1011.0
20260506121501 60 266 1.0 5.0 0.00 0.00 0.00 84 1011.2
20260506120111 58 167 2.0 5.0 0.00 0.00 0.00 88 1011.5
20260506114559 56 163 0.0 3.0 0.00 0.00 0.00 93 1011.5
20260506113100 55 173 0.0 2.0 0.00 0.00 0.00 95 1011.3
20260506111559 53 263 0.0 0.0 0.00 0.00 0.00 94 1011.3
20260506110057 52 263 0.0 0.0 0.00 0.00 0.00 94 1011.6
20260506104559 52 263 0.0 0.0 0.00 0.00 0.00 93 1011.4
20260506103055 51 263 0.0 0.0 0.00 0.00 0.00 93 1011.4
20260506101553 51 263 0.0 0.0 0.00 0.00 0.00 93 1011.3
20260506094605 52 263 0.0 0.0 0.00 0.00 0.00 92 1011.1
20260506093048 52 263 0.0 0.0 0.00 0.00 0.00 92 1011.3
20260506091547 52 263 0.0 0.0 0.00 0.00 0.00 92 1011.2
20260506090045 52 263 0.0 0.0 0.00 0.00 0.00 92 1011.4
20260506084546 53 263 0.0 0.0 0.00 0.00 0.00 91 1011.5
20260506083043 53 263 0.0 0.0 0.00 0.00 0.00 91 1011.5
20260506081540 53 263 0.0 0.0 0.00 0.00 0.00 91 1011.5
20260506073035 54 263 0.0 0.0 0.00 0.00 0.00 90 1011.6
20260506071532 54 263 0.0 0.0 0.00 0.00 0.00 89 1011.8
20260506061528 55 263 0.0 0.0 0.00 0.00 0.00 87 1011.7
20260506044512 59 262 0.0 2.0 0.00 0.00 0.00 80 1012.1